GFSNIL_sfc_thetae_003.txt.gz
Theta_e
333 333 337 332 331 328 330 330 334 334 335 335 336 338 339 340 339 340 334 334 332 332
332 335 335 335 335 334 333 333 334 334 335 335 335 337 338 338 335 336 336 336 330 329
331 334 335 334 334 334 330 333 332 334 335 335 335 336 338 339 336 333 332 333 328 326
330 332 332 333 334 331 333 330 333 334 334 333 335 337 339 338 335 332 330 329 326 325
329 331 332 333 336 334 334 329 329 333 333 333 334 336 336 334 334 331 329 327 327 325
328 330 331 332 332 336 335 331 329 330 329 332 334 334 336 335 334 334 334 330 327 329
327 329 331 330 330 332 334 335 333 330 330 330 331 335 335 335 337 336 333 331 333 333
326 328 332 330 330 330 330 330 332 332 331 330 329 331 334 336 337 335 335 335 333 336
324 325 328 330 329 329 327 326 327 327 326 328 321 305 313 328 334 333 332 329 329 327
323 323 325 326 325 326 329 330 328 327 327 325 322 303 307 317 333 333 334 333 331 324
319 322 324 325 326 330 331 331 329 326 326 326 313 302 306 313 336 335 334 332 331 331
317 320 323 324 328 332 331 332 329 327 326 325 320 300 300 308 330 328 327 326 327 328
318 320 322 327 330 332 331 329 326 326 327 318 324 298 297 304 319 323 320 322 321 303
321 323 327 332 334 331 329 328 329 325 327 326 325 315 296 296 317 316 314 313 313 313

GFSNIL_sfc_thetae_006.txt.gz
Theta_e
333 331 332 330 329 329 331 331 333 333 334 335 334 334 334 332 333 332 331 330 330 329
334 334 334 334 332 327 333 333 333 333 334 334 334 332 332 331 332 333 331 331 329 328
331 336 335 336 334 328 332 333 331 332 332 333 333 333 334 333 333 332 328 329 328 327
335 335 333 333 332 327 330 332 331 330 333 332 332 331 333 331 331 329 329 328 324 325
335 334 334 332 333 328 329 332 332 333 332 332 333 334 331 330 329 328 327 326 324 323
334 332 334 333 332 329 328 330 332 332 332 332 332 332 331 332 330 329 327 326 324 323
334 332 334 334 334 332 332 329 329 332 332 331 331 332 333 332 330 330 329 327 326 325
333 336 334 333 333 332 332 332 331 332 332 331 332 333 331 332 330 329 328 328 328 326
327 331 333 333 332 331 330 331 330 325 326 325 320 307 316 328 330 329 328 327 326 323
325 326 330 330 330 329 331 333 328 326 325 323 316 305 308 317 328 327 327 326 323 322
322 323 327 328 329 331 332 331 330 326 325 320 309 305 306 318 331 331 329 328 325 321
320 323 324 326 329 332 333 332 330 328 326 319 315 302 302 319 328 329 326 326 326 328
319 323 324 329 330 332 334 332 328 328 328 319 318 298 299 307 325 324 323 322 313 305
320 324 327 332 332 332 332 330 331 328 329 327 321 309 298 297 316 321 317 316 316 308

GFSNIL_sfc_thetae_009.txt.gz
Theta_e
323 324 323 321 322 323 322 322 324 325 324 326 327 326 326 324 326 326 326 324 323 325
325 325 323 323 323 323 323 325 326 326 326 326 327 326 326 328 327 327 326 324 324 325
327 326 326 326 326 322 323 325 326 327 326 326 326 327 328 328 325 325 325 325 326 325
325 325 326 326 323 323 323 327 325 327 327 326 328 326 326 326 325 324 324 325 324 323
325 326 325 327 324 323 324 325 326 327 327 328 326 326 326 326 325 323 322 323 323 324
323 325 324 325 323 325 324 325 326 328 327 328 327 326 326 326 324 323 323 322 323 324
322 322 323 325 325 326 326 324 324 327 328 329 329 328 328 328 326 325 324 323 323 324
322 322 323 325 325 326 327 326 326 325 329 330 329 330 328 328 327 325 324 325 325 325
320 324 323 322 324 324 324 326 321 319 320 320 323 312 315 325 327 326 325 324 324 324
319 326 322 321 320 319 321 318 318 318 316 315 313 308 312 317 328 327 325 322 322 324
318 322 321 320 318 318 319 317 315 315 312 308 305 305 308 313 325 323 322 321 320 319
317 318 320 319 317 319 318 317 315 313 310 308 304 304 308 319 321 320 320 320 316 319
316 317 317 320 319 320 319 319 319 315 310 308 304 298 302 315 320 315 312 309 312 309
315 317 317 321 322 320 321 319 317 317 313 310 305 300 297 303 316 315 312 310 306 307

GFSNIL_sfc_thetae_012.txt.gz
Theta_e
319 320 319 319 320 319 319 319 320 321 322 322 323 323 322 321 322 322 322 321 321 321
320 321 321 323 321 320 320 323 322 322 321 323 324 323 322 324 324 324 323 323 322 321
322 323 322 322 319 320 320 322 323 323 322 322 323 324 325 325 324 325 325 326 324 324
322 324 323 320 320 321 321 322 323 324 324 324 324 324 324 321 323 324 324 325 324 323
323 323 323 321 320 322 321 323 324 325 325 325 324 323 324 324 323 323 322 323 324 324
321 322 322 319 320 322 322 324 325 325 324 325 324 323 323 323 322 322 322 323 324 324
320 321 322 321 321 322 323 325 324 325 327 326 325 325 325 323 321 321 322 323 325 325
318 321 323 323 324 323 323 324 325 327 327 326 326 327 326 325 324 323 323 324 325 325
319 321 322 322 322 324 323 319 322 324 324 324 325 309 313 322 325 324 323 323 324 323
321 321 320 321 321 320 317 316 315 317 319 319 319 307 309 314 325 325 324 323 324 325
320 319 318 317 317 317 314 314 311 312 312 315 316 306 308 311 325 324 323 323 323 324
320 319 317 315 316 315 313 311 311 310 309 311 311 303 304 316 321 321 320 321 320 320
318 318 317 314 315 315 313 312 311 309 308 305 304 302 305 314 319 316 314 314 316 308
315 316 317 315 316 316 315 313 310 309 307 305 303 299 302 306 315 314 310 311 311 306

GFSNIL_sfc_thetae_015.txt.gz
Theta_e
317 317 316 318 317 317 316 316 317 319 320 319 321 320 318 318 317 320 320 319 318 321
318 317 319 317 318 318 317 319 319 320 320 321 321 320 319 320 321 321 320 318 320 322
319 320 320 319 318 318 319 320 320 319 319 320 320 321 324 324 325 324 324 321 323 324
320 321 319 318 318 319 319 320 320 321 320 320 321 321 322 322 324 323 324 323 323 322
321 320 318 318 319 320 320 321 322 322 322 322 321 320 321 323 323 323 323 323 323 323
319 319 317 318 319 320 321 321 322 322 322 322 321 321 322 322 322 323 323 324 323 323
318 319 318 319 320 321 322 321 321 322 323 323 322 322 321 321 321 321 323 324 324 325
318 320 320 320 320 321 322 322 323 323 323 323 323 323 321 321 321 322 322 324 325 325
318 321 320 319 320 320 318 321 325 323 325 324 325 305 312 320 323 323 323 323 323 322
319 320 320 320 319 317 314 316 320 322 322 322 320 305 306 313 324 323 323 323 323 325
320 319 319 319 317 313 311 312 314 317 318 320 316 304 304 310 324 323 323 324 324 323
320 316 316 316 314 311 310 309 311 312 315 317 315 301 302 316 322 321 321 323 323 324
319 316 314 314 313 311 310 310 309 310 313 310 313 300 302 314 319 316 318 319 317 310
317 316 315 314 313 311 310 309 307 307 306 308 311 309 301 306 318 317 315 315 313 311

GFSNIL_sfc_thetae_018.txt.gz
Theta_e
319 318 318 319 319 319 319 320 320 322 322 322 322 321 321 322 321 323 324 322 321 322
319 320 319 321 320 320 320 321 321 322 322 323 323 322 322 322 322 323 322 323 323 324
321 323 322 321 321 322 322 323 322 322 322 323 323 324 325 325 325 324 324 325 325 325
322 322 320 321 322 322 322 323 322 322 322 323 322 323 323 324 325 324 324 325 325 324
322 320 319 321 321 322 322 323 323 323 323 323 322 323 323 323 324 324 323 324 324 323
321 319 319 321 322 323 323 323 324 324 323 323 323 323 324 324 324 324 325 325 324 324
320 320 320 321 322 323 324 323 323 324 323 323 322 322 323 323 323 324 325 325 325 326
320 321 321 322 323 323 324 324 324 324 324 324 322 321 321 322 323 324 324 325 325 325
321 322 320 321 321 321 324 325 325 324 324 324 321 306 311 319 323 325 325 323 323 322
321 321 321 321 320 318 319 323 323 324 324 322 319 303 305 311 324 324 324 323 323 324
320 321 320 320 317 315 315 319 320 320 322 321 316 303 303 310 324 324 324 325 325 325
321 320 319 318 316 314 314 315 316 319 322 320 314 301 303 317 323 322 323 325 325 324
320 320 318 318 316 314 314 314 316 318 320 313 316 300 303 315 322 321 322 322 320 309
318 318 317 316 315 313 312 312 313 313 314 318 316 310 300 306 322 322 321 320 319 321

GFSNIL_sfc_thetae_021.txt.gz
Theta_e
330 331 331 330 331 330 330 330 332 332 332 331 332 332 332 330 330 332 333 332 332 332
331 331 332 331 332 331 331 330 332 332 331 332 332 331 333 330 330 331 330 326 325 327
332 333 332 332 331 332 332 331 332 332 332 332 333 332 332 330 332 331 329 329 330 330
332 330 330 332 333 332 333 332 331 331 331 332 328 328 329 330 328 327 328 329 328 328
331 329 330 331 331 333 333 333 331 330 330 326 325 327 327 326 327 328 325 326 327 327
330 329 330 331 333 333 333 332 331 330 329 326 325 327 328 327 326 327 328 327 327 328
330 329 331 332 333 333 333 332 331 331 330 325 326 326 326 327 327 328 327 329 331 331
330 330 331 332 332 333 333 332 332 331 330 325 324 324 326 327 327 328 327 328 328 330
330 329 330 332 331 332 332 331 331 330 330 326 323 306 312 321 326 327 328 326 327 325
329 328 330 330 329 331 332 332 331 329 330 325 322 305 307 313 328 328 327 327 327 324
328 328 329 328 327 330 332 331 327 326 326 324 320 302 304 310 329 328 329 329 328 325
328 327 328 326 325 327 329 329 325 325 324 319 313 301 303 317 326 325 327 328 329 329
328 328 327 328 326 327 329 328 330 326 324 314 318 300 303 317 324 322 323 327 327 309
329 330 330 330 327 327 327 329 329 328 327 325 321 311 301 307 327 326 323 325 324 323

GFSNIL_sfc_thetae_024.txt.gz
Theta_e
336 336 335 334 333 335 334 335 336 335 336 335 335 335 335 333 333 335 336 332 331 332
336 337 336 335 336 334 335 332 335 335 335 335 335 335 336 336 335 336 336 335 335 335
336 337 336 336 334 333 334 333 334 334 334 335 335 334 335 334 335 334 332 327 329 333
336 335 336 335 334 334 334 334 333 333 334 333 334 337 336 334 333 331 333 333 332 332
335 334 336 334 335 335 334 333 332 332 332 332 334 335 331 331 332 330 329 330 331 332
334 335 334 334 335 334 333 333 332 332 333 330 332 331 331 330 329 330 331 330 329 331
333 333 334 335 335 333 334 332 332 332 331 329 329 329 329 329 330 330 333 331 332 331
334 334 334 334 334 334 335 334 333 332 330 329 329 328 329 329 329 328 331 334 332 332
333 333 333 334 334 334 333 333 333 333 332 330 327 308 313 323 330 330 331 332 332 331
332 332 332 333 333 334 334 335 333 332 332 328 329 306 308 312 331 331 332 332 328 327
330 331 332 333 334 334 336 334 331 328 330 329 326 305 305 310 331 332 334 331 334 332
330 331 331 331 335 336 334 325 328 329 327 328 324 301 304 315 331 332 332 334 332 332
331 331 330 330 334 336 336 333 330 328 324 314 319 300 302 318 327 327 328 331 331 308
332 331 333 332 335 336 334 334 332 329 329 328 323 313 302 309 326 327 325 327 327 319

GFSNIL_sfc_thetae_027.txt.gz
Theta_e
338 336 338 336 335 334 336 338 337 335 336 335 335 335 335 336 338 337 337 335 335 336
337 337 337 336 337 334 337 334 335 335 335 335 335 335 336 337 335 336 334 335 334 332
336 337 337 336 335 336 337 334 334 335 335 335 335 335 337 337 336 334 329 332 332 331
337 335 337 337 335 335 334 334 332 334 334 334 334 336 336 335 332 332 330 331 329 333
335 334 337 335 335 336 334 332 332 332 333 332 332 335 333 332 333 331 330 332 330 331
333 335 334 334 336 335 332 331 331 332 332 331 332 331 332 331 331 330 332 332 332 332
334 335 334 336 335 334 332 331 331 332 332 332 330 330 330 330 330 332 333 332 334 331
334 334 335 334 334 335 334 332 331 333 333 330 330 328 330 331 331 333 333 333 332 333
332 333 332 335 334 334 333 333 333 332 332 330 329 309 314 323 330 334 333 332 332 332
332 331 331 332 333 333 334 335 333 333 332 331 329 308 310 313 333 334 333 333 332 331
330 332 331 332 332 335 338 335 335 333 333 331 325 308 308 311 335 333 334 333 333 333
330 331 331 332 334 336 331 331 331 332 331 331 326 304 303 313 333 331 333 332 331 332
331 332 331 334 335 338 337 332 329 330 328 316 328 300 302 314 333 330 329 331 327 309
333 333 333 336 338 338 336 333 330 330 329 328 324 317 301 307 332 331 331 327 327 323

GFSNIL_sfc_thetae_030.txt.gz
Theta_e
342 339 340 340 338 337 337 336 337 335 335 335 335 333 334 333 330 330 330 328 329 329
340 341 339 340 340 338 338 335 336 335 336 336 335 335 334 330 330 331 329 330 329 329
338 338 339 340 337 338 337 333 335 336 335 335 334 334 333 332 334 330 328 328 329 329
337 334 338 336 337 337 337 335 333 333 335 334 333 333 332 333 330 328 327 328 326 327
333 334 336 336 336 337 334 333 333 332 332 332 332 335 332 330 332 330 328 327 326 326
334 336 336 336 336 335 334 332 331 331 330 331 333 332 331 331 330 330 329 328 327 326
335 334 335 337 336 337 332 330 330 332 331 332 331 330 331 330 330 331 330 329 330 326
333 335 335 335 335 336 330 330 330 332 331 331 329 328 331 331 330 331 330 329 330 326
332 332 334 334 335 336 334 333 332 332 330 329 326 308 311 321 331 331 330 329 326 324
332 331 332 333 333 333 333 333 331 331 330 327 325 307 307 311 332 330 330 329 329 328
330 330 332 330 333 334 334 333 332 331 329 327 322 309 301 305 332 331 331 330 330 328
331 331 331 332 334 335 333 331 329 330 329 326 323 301 302 317 331 330 329 330 330 328
331 331 333 333 334 336 335 331 331 328 328 318 324 303 302 313 329 327 325 327 323 310
333 333 335 335 335 335 333 330 327 326 326 328 324 319 303 303 329 328 326 324 322 316

GFSNIL_sfc_thetae_033.txt.gz
Theta_e
327 326 327 326 326 326 325 326 326 326 326 327 327 327 326 325 323 323 322 323 322 323
328 328 327 327 326 327 326 326 326 326 326 327 327 326 325 323 324 324 321 322 322 322
328 329 328 326 325 326 326 326 326 327 327 327 326 326 327 324 325 322 323 322 322 322
328 329 327 327 327 325 325 326 327 329 328 327 327 327 324 323 326 325 323 324 322 322
330 328 326 326 326 324 326 324 326 328 328 328 327 325 324 324 325 325 324 322 323 322
327 326 325 326 326 325 325 325 327 327 328 328 327 325 325 326 325 326 326 326 325 324
325 326 326 327 326 327 328 325 327 327 328 326 325 325 325 325 325 326 327 327 326 325
326 327 327 327 326 327 327 327 329 326 324 324 325 324 323 327 327 326 326 325 325 324
327 328 326 326 326 326 328 329 327 324 323 320 321 307 310 318 325 327 325 322 323 323
328 327 326 327 326 324 324 324 324 322 322 318 315 302 302 308 328 328 325 322 322 324
328 326 327 327 325 323 323 323 323 322 319 317 312 301 301 306 326 324 327 324 323 324
328 325 325 325 325 325 325 322 323 322 318 316 311 302 301 316 324 324 324 325 323 324
327 326 325 325 325 324 322 322 325 322 319 313 314 303 301 311 323 321 322 321 319 308
326 327 327 325 326 325 322 325 321 321 320 319 315 312 301 307 324 321 321 320 317 312

GFSNIL_sfc_thetae_036.txt.gz
Theta_e
324 324 323 322 323 323 323 323 324 324 323 324 325 325 324 322 321 321 320 319 319 318
325 325 323 324 323 324 324 324 324 324 324 324 325 325 323 321 322 322 320 320 319 320
325 326 325 324 324 324 323 323 324 323 324 324 325 325 323 322 325 322 320 321 320 320
324 326 325 323 324 324 323 323 324 326 326 325 325 324 322 321 323 319 320 322 322 321
325 325 324 324 324 322 323 323 325 327 326 326 325 322 323 323 324 324 322 322 320 320
326 323 323 324 323 321 322 322 323 325 326 326 324 323 324 325 324 325 324 323 323 323
323 323 323 324 323 322 324 323 326 325 325 324 323 323 323 324 324 325 325 325 325 324
323 324 324 324 324 324 327 327 327 323 322 322 322 320 321 324 323 325 325 324 324 324
324 325 324 323 323 327 326 327 325 321 321 318 319 305 307 316 324 324 322 321 322 322
325 325 324 324 323 323 323 322 319 319 318 315 313 301 301 308 324 321 319 320 323 323
325 324 324 323 321 320 320 320 319 317 316 314 313 300 301 309 324 322 323 321 324 322
325 324 324 323 320 320 320 318 318 316 315 313 312 300 303 315 322 322 323 324 324 323
325 324 323 322 321 320 320 323 322 316 314 311 313 300 302 314 323 322 320 320 318 309
324 323 323 322 321 319 320 321 320 318 314 314 312 310 302 307 322 321 319 318 317 314

GFSNIL_sfc_thetae_039.txt.gz
Theta_e
322 322 321 321 321 321 321 322 323 322 322 322 323 322 321 320 319 319 319 318 317 317
323 322 321 322 322 322 321 323 323 322 321 322 323 323 321 320 320 321 320 318 317 317
323 323 323 322 321 322 321 321 321 322 322 322 323 322 321 319 323 323 320 319 318 318
322 323 322 321 322 322 321 322 322 323 323 323 322 322 320 321 321 320 319 322 321 318
323 322 321 321 322 322 322 321 323 325 324 324 324 321 320 321 323 321 321 320 321 319
321 321 321 321 321 321 320 321 322 324 324 324 323 322 322 323 323 323 323 321 321 322
321 321 321 321 320 320 321 320 322 322 324 323 321 322 322 323 322 324 324 324 324 323
321 322 322 322 320 321 323 323 325 323 321 320 319 318 320 322 323 324 323 324 324 324
322 323 322 322 321 322 324 325 324 320 319 316 317 301 305 316 324 324 322 321 321 321
323 323 322 322 321 322 324 322 318 317 317 314 313 299 301 309 322 319 319 323 323 323
323 323 322 321 319 318 317 317 316 315 314 314 311 300 302 309 320 319 321 323 323 321
323 322 322 319 317 317 317 316 314 314 313 314 313 299 302 315 320 323 322 323 323 322
323 323 321 319 317 317 318 318 316 313 313 310 315 300 302 315 323 320 319 319 318 309
323 322 321 319 318 317 318 319 316 313 312 313 313 310 301 308 322 320 319 318 317 313

GFSNIL_sfc_thetae_042.txt.gz
Theta_e
324 323 322 323 323 323 324 325 326 326 326 325 325 325 324 324 323 323 322 321 321 321
323 323 323 323 324 323 324 325 325 325 325 325 325 325 324 324 323 324 323 323 322 321
323 324 323 323 323 323 324 326 325 324 324 325 326 326 325 323 324 324 323 322 322 321
323 324 323 323 323 323 323 323 324 324 325 325 325 325 324 324 324 324 322 323 322 322
323 323 322 323 323 323 323 324 325 326 326 326 326 326 324 324 325 323 321 321 322 321
322 322 322 323 323 323 323 324 326 327 326 326 326 325 324 324 324 324 323 321 321 322
322 322 322 323 322 323 323 323 324 326 326 325 324 324 325 325 325 324 324 323 324 324
322 322 323 322 322 323 323 323 325 324 323 323 322 319 322 325 324 323 323 324 324 324
322 323 323 322 322 323 324 324 325 322 321 320 315 301 304 316 327 326 323 321 322 322
324 323 323 323 323 323 323 322 321 320 320 318 316 300 301 310 324 324 323 323 322 323
324 323 323 323 322 321 321 320 319 318 318 318 313 301 303 307 323 323 324 324 323 321
324 323 323 321 320 319 319 319 318 318 317 318 317 301 303 314 325 323 323 324 323 322
324 324 322 320 319 320 320 319 318 316 317 311 319 301 303 316 323 321 320 320 318 308
324 324 322 320 321 320 320 318 317 315 316 317 315 312 301 308 324 322 320 319 316 310

GFSNIL_sfc_thetae_045.txt.gz
Theta_e
340 338 338 338 337 336 336 337 340 339 339 337 336 335 335 333 332 333 332 332 331 330
338 338 336 338 339 337 339 338 338 338 337 336 335 335 335 332 333 334 333 329 332 331
336 337 337 337 337 337 338 337 337 336 336 335 335 335 336 334 334 333 332 326 332 332
335 336 337 337 336 337 337 337 335 334 333 334 334 336 335 334 333 332 329 326 330 330
336 336 336 336 336 335 334 334 333 333 333 333 334 335 334 333 332 330 324 323 323 324
334 335 335 335 334 333 333 333 333 334 333 332 333 333 333 332 331 329 327 324 324 324
334 334 334 334 334 333 333 333 334 334 333 333 332 332 333 332 331 328 326 325 324 324
334 334 334 333 333 333 333 333 334 333 333 332 331 327 332 332 329 327 325 325 326 326
332 332 333 333 332 333 332 333 333 332 330 330 325 302 304 319 332 330 326 322 324 324
332 331 332 331 331 332 333 334 332 331 329 328 328 301 302 310 331 328 326 324 323 323
331 330 331 330 331 333 334 332 331 330 329 329 323 302 303 308 331 328 329 327 324 322
331 330 330 330 331 333 331 330 330 330 328 329 323 302 302 317 328 327 327 326 324 323
331 331 330 331 331 332 332 330 328 328 329 314 323 301 304 318 325 323 322 322 319 309
332 332 332 332 332 331 330 328 328 326 328 322 319 315 301 307 327 324 322 318 317 310

GFSNIL_sfc_thetae_048.txt.gz
Theta_e
352 349 349 350 347 344 343 344 349 346 346 345 343 342 342 337 335 337 335 336 334 331
349 349 346 348 348 342 345 343 346 345 344 342 341 340 340 334 336 336 336 336 336 334
347 346 347 346 343 343 344 344 344 343 341 341 339 338 338 335 336 335 336 334 333 334
343 343 343 342 343 344 344 343 341 340 339 337 337 337 337 336 335 334 335 332 327 333
342 342 343 342 342 343 341 340 338 336 335 335 334 337 336 335 333 334 333 327 326 328
341 341 341 341 341 339 337 336 335 335 334 333 334 335 336 335 333 333 333 327 325 326
339 338 338 339 338 337 336 335 335 335 334 335 334 335 334 333 333 330 328 326 324 325
336 337 338 337 337 337 335 335 335 335 335 335 335 333 334 333 334 332 325 326 325 327
335 336 337 337 337 335 335 336 335 335 334 334 331 304 306 319 335 331 326 324 326 328
335 335 335 335 334 334 335 337 335 335 334 333 333 304 304 309 335 332 326 325 325 324
333 333 334 334 334 335 336 335 336 335 333 333 328 304 303 309 334 333 330 326 326 323
332 332 332 332 334 336 335 336 336 335 333 333 329 302 303 313 333 331 330 327 324 324
332 333 332 333 334 336 336 335 334 332 332 318 328 301 303 318 330 330 326 324 321 310
333 334 335 336 335 335 333 334 333 331 329 328 327 320 302 307 331 328 323 322 317 314

GFSNIL_sfc_thetae_051.txt.gz
Theta_e
356 349 351 354 349 347 347 348 354 351 348 346 345 344 345 343 342 342 336 338 337 335
354 358 352 360 360 350 354 349 348 347 346 344 343 343 343 339 337 339 339 338 338 335
353 353 352 352 353 352 350 347 347 344 343 343 342 341 341 338 338 337 335 338 337 336
350 349 349 347 345 345 346 344 341 341 340 340 339 339 339 339 336 334 336 336 333 334
347 345 345 344 344 344 342 340 339 339 338 336 336 337 335 334 335 333 332 333 331 329
342 342 343 342 342 341 339 338 338 336 334 333 333 335 335 333 333 333 333 333 329 326
341 341 340 341 340 338 338 336 335 335 334 333 334 335 335 334 334 334 331 328 327 326
339 339 338 337 337 337 337 335 334 334 336 335 334 329 335 335 335 334 331 327 325 327
335 335 335 336 337 338 335 334 337 335 334 335 330 305 309 322 335 334 330 325 325 327
333 334 335 335 335 334 336 339 335 335 335 334 331 306 307 310 336 332 329 327 327 327
334 333 333 334 334 336 338 337 338 336 334 334 326 306 304 307 333 333 330 326 327 325
333 332 332 332 334 338 339 337 337 335 334 333 332 305 305 314 333 332 329 327 326 325
333 332 332 334 337 337 337 336 335 333 335 321 332 304 304 315 332 329 328 326 323 310
333 334 334 336 339 336 335 335 334 332 331 333 329 324 305 304 329 329 324 321 319 316

GFSNIL_sfc_thetae_054.txt.gz
Theta_e
351 352 355 350 347 343 342 343 345 346 348 347 347 345 345 342 341 338 337 336 334 332
352 354 352 352 349 346 346 346 346 348 347 345 345 343 343 341 338 337 337 335 334 332
354 355 355 353 349 346 349 348 347 346 346 344 343 342 341 339 337 336 336 334 333 333
351 354 353 351 350 347 348 347 346 344 342 341 342 340 338 337 335 334 334 333 331 332
346 346 349 346 346 345 344 343 341 341 339 338 338 336 336 334 333 332 331 332 330 328
342 344 345 344 344 344 342 342 339 339 337 336 336 334 334 334 333 333 332 331 329 326
342 343 343 343 342 342 339 339 339 338 335 333 333 334 334 333 333 333 333 330 326 325
342 342 341 340 340 339 340 338 336 336 333 333 330 329 334 335 332 332 328 328 326 324
339 338 338 338 338 339 337 338 333 334 333 327 324 305 310 323 333 333 329 326 324 326
335 334 335 336 336 336 334 337 335 334 333 330 322 304 308 312 334 332 329 326 323 325
332 333 334 334 333 336 336 337 335 334 333 330 320 307 307 308 334 331 329 326 325 325
333 333 332 332 334 336 335 334 334 335 333 331 324 304 305 316 332 330 327 326 324 324
334 333 332 334 336 336 335 335 335 334 333 320 324 303 303 315 329 327 326 325 321 308
334 335 335 336 336 334 334 334 333 331 330 330 327 314 304 304 330 327 324 321 318 316

GFSNIL_sfc_thetae_057.txt.gz
Theta_e
335 340 336 343 341 340 338 338 340 341 342 342 340 337 337 332 332 331 329 327 325 323
337 338 341 342 341 340 338 340 340 342 341 340 337 336 334 332 330 329 328 327 326 324
341 342 346 343 340 338 339 339 339 341 339 338 336 335 332 330 329 329 327 326 325 324
343 344 346 342 342 340 341 339 341 340 336 335 333 333 330 328 328 327 325 325 325 325
342 344 342 341 342 343 341 341 339 336 335 335 334 330 329 328 329 326 324 325 324 325
340 340 337 335 336 340 340 336 336 334 332 332 333 331 332 327 328 327 326 326 324 323
337 338 337 336 335 332 332 331 333 334 335 334 332 330 328 329 328 328 326 325 324 321
338 337 335 332 332 330 330 329 329 329 328 330 331 330 330 330 326 325 322 322 322 321
336 334 333 329 328 329 328 327 327 327 325 323 322 306 313 323 326 325 322 320 319 322
333 331 329 329 328 326 327 328 327 328 323 317 314 304 308 314 326 324 322 320 319 323
330 329 328 326 326 329 329 328 327 328 324 317 312 304 309 311 325 323 322 321 321 323
330 328 327 325 327 328 328 324 324 327 321 316 314 304 307 313 325 323 321 321 322 322
329 328 328 326 327 325 325 324 327 327 324 314 314 301 304 313 325 321 320 319 319 302
330 327 327 327 325 325 325 326 325 324 322 320 314 310 302 308 326 322 321 320 317 312

GFSNIL_sfc_thetae_060.txt.gz
Theta_e
329 330 330 332 338 339 339 338 338 338 338 338 339 336 335 335 332 329 327 325 323 322
331 330 331 336 339 338 338 339 338 338 337 337 336 336 333 333 330 328 326 325 324 321
332 334 337 339 337 337 337 339 337 336 336 336 337 334 331 329 328 326 325 324 323 322
333 336 340 339 337 337 338 337 337 337 336 337 335 333 329 327 327 326 324 323 323 322
338 339 340 338 337 337 336 338 338 338 337 336 335 330 327 326 327 326 323 322 322 323
337 340 340 338 338 337 338 337 337 336 335 334 332 329 326 327 327 325 324 323 322 322
336 336 336 338 339 338 337 335 334 333 333 332 330 329 329 327 325 325 324 324 322 321
334 334 334 332 333 333 336 335 334 330 329 330 331 328 327 326 325 323 321 321 321 320
333 334 334 332 328 328 327 327 326 325 325 324 324 310 315 324 323 322 320 318 318 319
333 332 331 328 327 324 323 323 321 320 321 321 316 303 306 311 323 321 319 318 317 319
332 329 328 326 324 323 323 323 322 321 319 315 311 304 306 312 322 320 320 319 318 319
329 327 325 323 323 324 326 327 325 321 316 313 312 303 305 316 321 319 319 319 320 320
328 326 324 323 324 326 326 326 324 319 316 312 314 301 301 312 321 318 320 318 316 304
327 324 324 324 326 323 325 325 322 319 315 315 314 308 299 305 322 321 318 319 316 313

GFSNIL_sfc_thetae_063.txt.gz
Theta_e
326 325 323 323 328 330 333 334 336 337 337 337 337 334 333 334 331 331 327 323 322 321
324 323 324 326 331 333 334 336 337 337 337 336 336 334 332 331 332 329 325 324 322 321
324 325 326 329 332 334 334 337 336 336 335 334 335 334 333 331 329 327 324 323 322 319
325 327 329 332 334 335 336 336 337 336 335 335 333 334 332 329 327 326 323 322 322 321
327 330 333 334 334 335 336 337 337 336 335 335 335 332 330 329 328 324 322 322 321 320
330 333 334 334 334 335 335 336 336 336 335 334 334 331 330 328 325 324 323 322 320 320
334 335 335 335 335 335 337 336 335 336 336 335 333 331 326 326 324 323 322 322 321 320
334 335 337 337 336 336 337 335 334 334 334 332 330 328 325 324 323 321 320 320 320 320
333 334 337 338 336 334 334 332 332 331 329 327 328 310 312 320 322 321 320 318 318 318
332 331 330 330 331 332 329 330 328 324 323 321 318 304 308 313 324 320 318 317 316 317
331 329 329 328 327 325 327 324 320 318 318 317 311 302 302 307 320 318 318 317 316 316
330 327 327 325 322 321 321 319 317 317 315 314 311 301 302 315 319 318 317 317 317 318
329 327 325 323 322 322 322 319 318 316 316 308 311 300 302 314 319 318 319 318 316 304
328 326 325 322 323 323 323 320 317 315 315 316 313 306 300 305 319 321 319 318 316 313

GFSNIL_sfc_thetae_066.txt.gz
Theta_e
334 334 331 329 326 327 329 333 337 338 338 339 339 338 337 337 335 333 331 328 329 328
329 329 327 324 327 327 331 334 336 338 338 338 338 338 336 335 334 332 331 329 329 328
327 328 327 325 327 330 332 337 337 337 338 338 338 336 335 334 335 332 329 328 327 326
322 324 325 326 329 332 334 337 337 338 337 337 336 336 335 335 331 331 327 328 327 326
322 325 326 328 331 334 335 337 337 337 337 336 336 335 334 332 331 329 327 326 326 325
323 326 327 329 332 334 336 337 337 337 337 336 335 334 334 333 331 329 328 327 326 325
324 327 329 332 333 335 336 336 337 337 337 336 335 334 332 331 329 328 327 326 326 325
328 331 333 333 334 336 336 337 337 336 336 335 334 332 330 329 328 327 325 325 325 325
334 335 335 335 335 334 335 336 336 335 335 333 332 310 313 323 326 326 325 324 324 324
334 334 334 334 334 334 334 334 333 333 332 330 327 307 307 312 326 325 324 324 323 322
333 332 333 333 333 333 333 331 330 329 329 326 318 302 302 307 326 324 324 323 322 323
331 329 330 330 329 329 328 327 325 324 322 320 314 299 301 315 324 322 321 321 321 321
330 329 328 327 326 327 327 322 321 319 318 311 312 299 301 315 323 321 320 321 319 306
329 327 325 325 325 324 321 320 318 316 316 314 312 307 301 304 324 322 320 319 318 317

GFSNIL_sfc_thetae_072.txt.gz
Theta_e
332 329 330 336 334 334 340 345 358 358 359 356 357 356 356 352 350 352 349 351 352 347
333 333 332 338 343 336 346 345 351 354 357 357 356 355 355 348 350 353 353 353 352 347
334 336 336 338 338 341 346 349 348 353 357 354 353 352 354 351 353 353 351 350 351 348
329 333 338 339 339 343 349 346 345 349 350 351 350 352 353 355 353 351 351 351 347 346
328 329 333 339 339 341 343 344 344 346 348 347 348 352 352 352 351 350 348 345 345 343
325 326 329 337 340 340 341 342 344 345 346 345 347 350 352 352 350 350 349 346 345 344
323 325 326 336 340 339 340 341 343 346 346 345 346 349 350 350 349 349 347 346 345 345
322 324 325 334 339 337 341 342 345 346 345 346 347 347 349 348 348 348 345 345 343 344
322 321 323 333 337 338 341 346 347 346 344 347 345 315 319 339 348 345 343 340 341 341
319 319 322 331 334 338 347 352 350 349 346 348 347 312 313 319 346 345 343 340 340 337
317 317 321 333 334 345 349 351 350 350 349 348 343 308 309 315 345 342 341 341 340 339
316 317 321 333 340 347 346 348 349 347 347 347 335 305 307 324 342 339 338 338 339 339
314 318 321 334 340 343 341 342 344 345 348 332 337 302 307 323 334 336 334 338 338 310
314 321 329 335 336 337 339 340 340 340 341 339 332 313 304 305 334 332 332 333 334 333

GFSNIL_sfc_thetae_075.txt.gz
Theta_e
334 329 331 335 333 331 334 338 354 363 360 360 359 357 359 356 357 359 355 356 351 351
332 337 335 341 343 334 341 339 343 357 364 361 360 362 362 358 359 357 356 352 354 352
329 331 334 341 342 343 343 344 345 349 356 360 361 363 363 358 359 354 352 351 354 355
326 328 331 335 338 342 347 347 345 345 352 355 360 363 361 358 352 350 354 355 355 353
325 325 330 331 334 339 342 345 346 345 344 350 353 358 355 353 348 351 352 353 350 351
325 325 329 332 333 334 339 343 343 343 344 348 351 354 355 352 350 354 353 351 351 350
321 324 326 329 331 334 335 342 341 344 343 347 351 352 352 351 353 355 353 354 351 347
319 320 323 327 330 332 335 344 340 341 345 348 350 348 351 353 354 355 353 353 348 350
314 316 321 326 330 330 333 344 341 341 343 347 347 322 323 343 354 354 351 349 347 346
313 313 318 323 326 329 334 343 343 345 347 350 353 312 314 321 355 352 350 347 347 342
309 312 317 321 325 331 334 341 343 347 352 353 350 310 312 318 354 351 348 348 346 344
307 308 316 321 326 330 336 340 344 348 350 350 341 307 311 328 349 346 345 344 343 342
309 312 317 321 323 329 334 340 346 348 349 337 342 304 310 329 343 342 340 342 337 310
311 314 320 322 320 328 331 341 344 345 347 349 339 326 310 307 342 338 336 334 335 334

GFSNIL_sfc_thetae_081.txt.gz
Theta_e
323 324 326 327 326 325 324 325 328 336 345 343 343 343 342 341 340 337 334 335 338 338
321 322 325 327 328 329 331 331 328 329 335 340 340 338 343 343 341 339 335 331 335 339
319 321 324 327 327 327 329 330 332 332 332 332 334 340 341 341 342 341 341 340 341 343
313 316 320 320 322 325 326 330 331 332 333 333 332 331 337 344 343 342 342 343 344 345
315 315 314 315 319 322 322 326 328 329 330 331 332 333 329 334 346 345 343 344 344 345
308 310 309 312 315 318 321 321 322 325 326 327 330 333 335 331 339 345 346 346 345 345
306 307 308 310 310 311 314 316 318 320 323 327 328 328 333 336 332 341 347 347 345 342
309 310 309 309 309 311 312 312 316 317 318 321 325 328 329 333 335 335 341 344 345 344
309 309 308 308 309 309 310 311 313 314 314 317 323 316 313 319 332 337 342 342 342 345
310 310 309 309 308 308 308 308 308 311 313 315 320 311 310 313 325 335 341 343 342 342
310 309 308 307 306 305 305 304 306 307 310 312 319 310 308 310 324 330 341 341 341 338
310 307 306 304 303 303 303 303 305 306 307 309 316 309 307 311 326 329 336 340 340 336
309 307 304 304 303 303 303 305 306 307 311 312 317 312 307 311 326 329 335 337 334 318
306 305 305 305 305 304 305 305 305 306 310 316 318 321 308 308 322 332 334 335 332 329

GFSNIL_sfc_thetae_084.txt.gz
Theta_e
317 317 319 321 321 320 320 321 324 327 335 341 340 340 340 339 336 337 339 339 338 334
318 320 320 320 321 322 325 329 330 329 328 333 339 339 339 339 339 338 338 338 338 337
316 317 316 318 321 324 325 326 328 331 330 331 332 336 337 337 340 339 339 338 337 335
315 316 317 317 317 319 321 324 326 327 327 329 331 332 330 333 338 338 339 339 338 337
310 310 311 312 314 315 316 319 322 326 325 327 326 327 329 330 332 335 338 339 338 339
310 309 311 309 309 312 312 313 315 317 319 321 324 325 326 328 331 332 333 342 340 341
305 307 305 306 308 307 308 308 309 310 314 316 317 319 322 324 324 327 332 334 342 344
305 305 305 306 306 306 307 308 309 309 311 313 314 315 314 318 321 323 327 331 335 342
307 306 306 306 306 306 307 307 307 308 310 311 313 306 307 312 318 322 323 325 331 339
307 307 307 308 307 306 305 305 305 307 308 308 309 304 303 306 314 318 321 324 328 334
309 308 308 307 306 306 305 305 305 306 306 306 307 302 301 303 310 317 322 324 326 331
309 308 308 307 307 306 303 302 303 304 305 304 305 301 300 302 310 316 318 323 327 332
306 307 307 307 306 305 304 304 305 304 303 304 304 301 300 302 312 315 320 325 329 316
305 304 304 305 304 302 302 303 302 303 304 304 305 305 301 301 312 317 321 323 327 330

GFSNIL_sfc_thetae_087.txt.gz
Theta_e
316 316 316 317 317 317 317 317 320 322 325 334 338 337 336 336 334 333 336 335 337 337
314 315 315 317 318 319 318 322 325 326 325 326 329 335 336 336 336 335 334 334 336 338
314 317 318 317 317 319 321 322 323 325 327 327 329 329 332 330 334 335 336 336 335 337
313 314 315 314 316 320 319 321 322 321 322 324 326 327 328 327 328 333 333 335 335 335
313 313 313 314 314 316 317 317 317 319 319 320 322 323 324 325 327 328 329 332 335 335
310 309 309 310 312 312 311 312 313 313 313 314 317 318 320 323 325 327 327 329 331 334
308 309 310 311 310 310 310 307 307 308 310 313 314 314 315 316 315 319 322 326 328 331
309 309 310 307 308 308 306 307 306 307 308 309 311 313 311 311 310 311 316 321 324 325
305 304 304 305 306 306 306 305 306 306 307 307 311 307 305 308 307 309 312 314 318 322
305 305 306 305 304 304 304 304 304 305 305 306 306 303 302 304 306 308 308 311 315 319
307 306 305 305 305 304 303 302 304 304 305 305 306 302 300 301 304 305 307 310 314 319
305 305 305 305 305 305 305 304 304 304 305 304 304 301 299 300 303 304 306 311 315 318
304 304 304 304 304 305 305 305 305 305 305 305 304 299 298 299 304 304 307 309 314 310
301 302 302 302 303 303 302 304 304 304 305 303 302 301 298 298 304 305 306 309 313 318

GFSNIL_sfc_thetae_090.txt.gz
Theta_e
315 316 316 317 318 318 318 319 323 324 329 337 338 338 336 334 333 332 332 332 333 336
317 315 315 317 318 319 320 322 323 326 326 329 335 337 338 335 333 333 333 334 336 336
314 315 317 318 318 320 321 324 326 327 329 330 331 332 334 334 335 335 334 336 335 336
313 316 318 318 319 319 321 324 325 325 325 327 327 328 329 329 329 330 332 334 335 335
314 315 315 316 316 318 320 322 323 323 322 322 323 324 324 325 326 327 328 330 331 331
312 313 313 315 316 317 318 319 318 318 317 317 318 319 321 322 323 325 324 325 326 328
310 312 313 314 314 315 316 315 314 314 313 313 315 317 317 318 318 317 319 322 324 326
311 312 312 312 313 314 314 313 312 310 311 313 314 312 315 317 315 315 314 316 319 321
310 310 310 311 311 312 312 312 309 308 309 310 311 305 306 311 313 313 313 313 315 318
307 307 307 308 307 307 307 308 306 308 309 309 310 302 302 305 311 312 311 312 312 312
308 307 308 307 306 307 307 305 306 306 307 308 309 301 300 302 311 310 310 311 311 311
306 306 306 306 306 306 305 305 306 307 307 307 308 300 299 301 308 308 308 309 311 313
305 305 305 305 306 306 306 306 306 307 307 305 307 299 299 301 307 306 306 310 312 305
303 303 303 303 304 305 305 306 306 306 307 307 306 307 297 297 307 306 307 308 309 312

GFSNIL_sfc_thetae_093.txt.gz
Theta_e
334 336 334 333 331 331 331 333 340 340 343 345 346 345 343 338 335 335 334 335 331 329
327 328 328 330 332 329 332 330 333 334 335 336 342 345 345 340 339 340 339 336 337 333
327 328 328 329 329 331 332 332 333 334 337 337 337 341 345 343 342 341 339 341 339 337
325 326 327 327 330 331 333 333 334 335 336 337 338 339 340 341 340 339 340 341 340 339
318 322 326 327 329 331 330 332 333 334 333 331 332 335 333 331 331 332 332 333 335 333
318 320 321 326 327 328 329 331 332 331 330 328 327 327 327 325 325 325 326 326 324 324
319 318 320 323 324 324 327 328 329 329 328 326 323 321 320 321 321 322 319 320 319 319
319 319 319 321 323 325 325 327 327 327 326 324 320 317 320 320 320 320 320 320 318 320
315 315 318 319 321 323 324 325 325 324 323 322 317 307 307 317 320 320 319 319 318 319
314 314 315 317 317 319 323 325 324 323 321 321 321 302 303 307 321 320 320 320 319 317
311 312 316 316 315 317 319 320 321 321 321 320 319 302 300 302 320 321 320 320 319 319
308 310 313 314 316 317 316 316 317 318 319 319 319 301 300 304 317 318 319 319 319 318
307 308 309 312 314 317 316 316 315 315 316 313 317 303 298 303 314 316 316 318 318 305
306 307 309 310 313 313 312 312 313 313 316 317 315 315 298 297 314 314 315 314 314 316

GFSNIL_sfc_thetae_099.txt.gz
Theta_e
338 332 334 342 341 342 342 346 358 358 357 356 357 357 357 352 351 353 350 351 350 341
334 338 336 341 348 345 349 345 347 355 355 356 354 354 355 349 351 351 352 350 351 345
333 334 335 341 344 347 349 350 349 350 352 352 352 345 351 350 350 350 350 347 348 347
328 332 333 335 338 343 346 348 339 342 345 346 347 349 349 348 344 344 346 347 344 344
325 327 325 327 334 337 335 335 333 335 335 335 335 341 339 336 335 336 338 339 341 340
323 324 324 323 322 329 332 330 328 328 328 328 329 332 334 333 332 332 335 334 335 337
319 322 322 318 318 320 327 330 329 328 327 327 328 329 330 329 330 332 331 334 335 334
317 319 321 315 314 315 319 320 321 324 326 327 326 324 327 327 328 328 328 329 328 328
313 315 318 318 315 314 318 321 320 321 321 325 322 310 310 323 328 327 326 325 323 324
311 311 314 317 317 314 316 320 320 318 323 324 327 303 305 308 327 328 327 328 327 322
309 309 311 314 318 319 319 317 320 320 322 325 320 312 304 306 330 329 329 329 329 329
309 308 309 311 316 320 324 323 324 325 326 327 327 307 304 309 326 328 329 326 328 327
307 307 308 312 316 319 322 322 325 326 329 324 328 304 302 307 319 324 322 328 330 309
305 306 308 309 310 316 317 320 324 324 327 330 328 324 300 301 320 319 319 318 321 323

GFSNIL_sfc_thetae_102.txt.gz
Theta_e
339 333 333 334 335 335 334 334 339 344 347 348 349 349 350 346 348 346 344 343 342 339
331 335 334 336 336 334 337 340 337 341 345 339 326 337 347 345 344 343 344 343 341 340
329 328 332 333 334 335 337 338 341 343 343 340 338 339 346 345 342 339 338 338 340 341
325 327 328 332 331 331 330 335 338 340 343 342 341 341 339 338 335 334 332 335 338 341
324 327 327 327 327 325 323 322 319 323 336 340 339 337 330 330 334 333 331 334 336 338
321 322 324 324 325 325 321 318 317 316 316 319 336 336 333 331 332 325 334 336 338 337
316 318 319 321 322 323 320 317 314 316 317 317 330 334 335 334 333 332 333 336 335 335
316 315 314 315 321 322 321 318 316 316 317 318 319 328 330 331 332 333 331 335 334 334
312 312 312 312 314 321 318 316 318 317 317 317 318 309 310 317 330 330 329 329 328 318
311 310 311 311 311 312 317 316 314 315 317 316 318 308 305 306 326 328 327 326 325 319
309 308 308 308 309 310 315 317 316 315 315 315 319 305 304 303 313 327 326 326 326 324
307 306 306 307 307 307 311 315 317 317 316 315 319 304 304 309 315 313 324 326 327 326
307 306 305 306 306 307 308 312 316 318 320 314 320 303 302 308 313 312 319 325 326 311
305 305 306 306 306 306 306 307 309 314 318 320 321 315 301 301 312 313 316 321 322 323

GFSNIL_sfc_thetae_105.txt.gz
Theta_e
322 323 323 324 325 326 328 330 331 330 336 334 330 331 332 326 323 330 339 336 336 336
319 319 317 321 326 327 329 330 330 331 329 335 337 330 330 326 322 331 331 338 337 336
318 318 319 320 322 323 321 320 320 318 318 327 325 325 328 327 327 324 332 338 337 332
312 313 317 321 321 320 318 318 318 317 316 315 317 322 317 317 319 322 332 330 326 325
312 314 315 315 317 319 318 317 316 316 315 316 316 316 317 323 323 328 324 322 319 323
308 309 310 313 316 317 318 316 315 315 313 314 316 316 315 316 318 320 321 321 321 323
307 307 307 307 308 311 315 316 314 313 314 317 317 318 317 315 313 316 324 324 324 325
307 307 306 306 306 308 311 315 315 314 312 314 316 319 313 314 313 312 322 320 321 322
307 307 306 305 306 306 306 311 312 312 312 313 317 311 308 312 314 320 322 322 326 329
307 306 305 306 305 304 304 305 309 310 311 312 315 308 307 308 313 316 320 317 315 317
306 305 305 303 302 301 302 303 305 308 312 312 315 307 306 305 310 316 321 317 315 313
306 305 304 303 303 303 302 301 304 307 309 311 313 304 302 304 312 313 316 317 316 316
303 302 303 303 303 303 303 302 305 305 305 308 313 304 300 303 312 309 312 316 316 311
300 301 302 302 302 303 302 302 301 303 303 307 312 314 302 302 310 309 309 314 316 315

GFSNIL_sfc_thetae_108.txt.gz
Theta_e
315 317 318 315 316 320 321 323 323 325 325 328 334 333 328 327 328 328 326 328 325 327
314 316 314 316 318 320 321 322 319 318 317 321 326 329 329 329 329 327 325 325 325 324
314 315 314 313 318 317 317 317 317 316 315 314 319 323 324 323 324 323 322 322 324 323
311 311 311 314 317 316 316 316 316 315 314 314 313 315 317 317 318 318 320 322 325 327
310 310 310 313 313 314 315 315 315 315 314 314 314 313 312 314 318 318 317 319 322 325
308 307 309 309 310 311 312 311 313 315 314 313 313 314 313 314 314 314 316 323 324 323
304 305 307 306 307 308 309 309 311 313 314 314 314 315 316 316 313 313 313 315 319 321
304 304 304 305 305 306 306 307 310 312 312 312 312 314 313 312 311 310 311 313 314 314
305 306 305 305 305 304 304 304 306 308 310 310 313 309 307 310 312 313 313 314 314 317
305 306 305 306 305 303 303 302 303 305 307 308 309 306 304 307 311 313 314 314 312 315
304 304 304 303 302 301 300 300 300 301 304 306 308 305 303 304 310 312 313 314 314 318
301 301 301 302 303 303 301 300 299 302 302 304 306 303 302 303 310 313 313 316 318 316
297 297 297 298 299 301 302 302 304 303 304 304 303 302 301 303 311 312 312 314 316 308
295 295 296 296 297 298 299 301 302 302 301 302 303 305 301 299 308 312 311 311 314 311

GFSNIL_sfc_thetae_111.txt.gz
Theta_e
312 315 315 314 315 318 319 320 318 318 316 317 320 321 324 324 324 322 323 325 329 326
311 314 314 313 315 318 319 320 317 316 314 314 315 316 317 321 325 327 328 327 328 329
310 313 313 312 311 316 317 317 316 315 313 313 313 313 313 312 316 319 322 323 320 320
309 312 312 310 310 314 314 315 314 314 313 312 312 311 310 311 313 314 315 316 319 320
307 309 308 308 310 313 313 314 315 314 313 313 313 311 310 311 313 312 313 315 316 317
306 306 306 308 309 310 311 312 312 312 313 313 313 311 311 312 312 312 312 313 316 319
303 303 303 305 306 307 310 310 308 309 311 313 313 313 313 313 312 312 313 313 313 314
303 303 303 303 304 305 306 307 308 308 309 310 311 312 311 312 312 311 310 311 312 313
303 304 303 304 304 304 305 305 305 305 308 309 311 307 306 309 309 310 311 310 311 312
302 302 302 303 303 302 302 302 302 302 304 306 306 303 303 305 307 309 310 311 312 313
299 299 299 300 300 301 302 301 302 303 303 303 306 302 301 302 304 306 309 311 312 313
297 297 297 296 296 297 298 300 302 303 303 303 304 300 300 301 304 306 308 311 314 314
296 295 295 295 295 297 298 298 300 301 302 303 302 300 298 300 303 305 309 313 314 308
294 294 295 294 295 295 296 297 298 298 299 303 303 303 298 298 301 307 310 311 312 314

GFSNIL_sfc_thetae_114.txt.gz
Theta_e
312 312 315 317 316 318 320 321 321 320 319 319 320 320 321 325 326 326 325 324 326 328
312 314 316 317 317 319 321 322 320 319 317 318 318 318 318 318 320 324 326 328 326 326
312 314 315 315 315 317 320 321 320 318 317 316 317 316 316 315 316 317 318 322 324 325
310 311 313 313 314 315 318 319 319 318 317 315 315 315 314 314 315 315 316 318 319 320
308 309 310 311 312 312 313 317 318 318 317 315 315 315 313 313 315 315 314 315 316 317
306 307 307 308 310 311 312 314 315 316 316 315 315 315 314 313 314 314 314 315 315 316
304 304 304 305 306 307 309 310 312 313 315 315 315 314 314 313 313 314 314 315 315 315
304 304 305 305 305 306 307 308 309 309 310 311 312 313 313 314 314 313 313 315 315 316
302 303 303 304 304 304 305 305 306 307 307 308 309 306 306 311 312 313 313 312 313 314
300 300 300 301 301 301 301 303 303 304 305 305 307 303 303 305 311 311 312 311 311 311
298 297 298 298 298 299 300 300 301 302 303 304 305 302 300 302 309 309 309 309 310 311
296 296 296 296 296 296 296 296 297 298 299 302 305 300 299 300 305 305 306 308 309 311
295 295 295 295 295 295 295 295 297 297 298 299 302 300 298 300 303 303 303 305 308 305
295 294 294 294 294 294 293 295 295 295 296 299 300 301 298 297 302 303 304 306 308 312

GFSNIL_sfc_thetae_117.txt.gz
Theta_e
331 326 326 331 328 327 327 330 335 333 332 331 329 328 329 326 327 331 331 333 333 331
328 328 327 331 333 329 333 329 333 332 331 329 328 327 327 323 326 327 329 329 331 328
323 324 326 329 330 330 332 333 331 331 330 328 327 326 327 323 324 324 323 323 326 327
321 322 323 324 325 327 328 330 330 330 329 327 326 326 325 324 322 321 322 324 324 324
318 319 320 321 322 324 324 325 324 325 326 326 325 325 324 321 318 319 318 320 322 322
315 316 316 316 317 318 318 319 320 321 321 322 323 324 324 322 319 319 320 321 320 320
313 313 313 314 314 315 315 315 316 317 317 318 320 321 322 322 321 321 320 322 322 319
310 310 310 310 311 311 311 311 312 312 312 314 316 315 319 320 321 322 321 322 320 321
307 307 308 308 308 308 308 309 309 309 309 311 311 306 306 312 319 320 320 319 320 320
305 304 304 305 305 305 306 307 307 307 308 308 310 303 302 304 311 315 318 319 319 318
302 302 302 303 303 304 305 305 304 305 305 306 307 301 300 301 308 310 314 316 316 317
301 301 301 301 301 302 302 302 302 302 301 300 303 299 298 301 307 308 310 313 314 312
299 299 299 300 300 300 298 297 298 297 298 299 300 299 297 299 305 306 307 308 309 304
298 298 297 297 296 296 296 295 294 295 297 298 299 301 297 296 303 302 303 304 305 308

GFSNIL_sfc_thetae_120.txt.gz
Theta_e
340 333 331 337 328 328 327 330 337 338 336 335 333 333 334 329 328 331 329 332 333 328
336 333 331 332 337 330 334 328 333 336 336 335 333 333 334 327 328 329 330 330 331 328
332 331 332 333 334 335 335 335 334 334 335 335 334 332 334 331 330 329 326 325 329 328
327 327 329 329 330 332 334 334 333 333 333 333 333 333 333 332 328 326 330 330 327 327
323 324 326 327 328 329 329 330 330 329 329 330 330 332 331 329 327 325 326 326 326 325
321 321 322 322 323 323 323 324 324 325 325 326 326 327 328 328 327 327 329 329 328 328
318 318 318 319 320 320 320 320 320 321 321 321 322 323 324 324 326 329 328 330 329 327
316 316 316 316 316 316 317 316 316 316 316 317 317 316 320 320 321 325 326 328 326 327
313 313 313 313 313 313 313 313 313 313 313 313 313 306 304 309 316 319 319 322 323 326
310 310 310 310 310 310 311 312 312 312 313 313 314 304 302 304 312 313 316 316 317 318
308 307 307 308 308 309 310 311 310 311 312 312 312 302 299 300 309 310 312 315 315 316
306 305 306 306 307 308 308 307 307 307 307 307 307 300 298 299 303 304 305 310 313 314
305 305 305 305 304 304 303 302 302 301 302 302 302 298 296 298 301 303 306 310 311 305
305 303 302 301 300 298 296 294 294 294 295 296 297 298 296 296 299 301 303 304 305 307

GFSNIL_sfc_thetae_123.txt.gz
Theta_e
352 347 343 344 336 331 330 334 351 343 341 339 338 340 342 333 331 338 333 338 337 325
346 346 340 344 342 332 341 330 336 339 340 338 339 340 342 331 337 336 337 334 338 331
336 336 337 338 337 339 339 336 334 335 340 339 338 339 341 333 335 336 331 330 333 335
331 330 331 332 332 333 335 335 334 334 333 334 338 340 340 339 336 334 335 333 332 332
326 327 328 329 330 331 331 332 331 331 330 329 331 337 337 334 333 333 331 331 332 330
324 325 325 325 326 326 326 325 325 325 325 326 328 331 333 333 333 332 332 332 331 330
321 322 322 322 322 322 322 322 322 323 322 322 323 324 326 326 329 331 331 331 331 331
319 320 319 319 319 319 319 319 319 318 318 320 321 318 323 325 325 326 326 328 328 329
316 316 316 317 317 318 316 316 316 316 315 318 316 307 305 309 317 318 318 319 321 324
313 312 313 313 313 315 317 319 315 315 314 316 318 306 303 304 314 316 317 318 318 318
310 310 310 310 311 315 315 315 314 314 314 315 315 302 298 300 308 310 311 312 313 314
308 307 307 307 310 312 312 310 309 308 309 308 308 300 296 298 303 304 306 308 310 309
307 307 307 308 306 305 305 303 302 300 301 299 298 297 296 297 298 298 299 301 303 303
307 305 303 302 300 298 295 294 294 294 295 296 297 298 295 295 297 297 297 299 301 305

GFSNIL_sfc_thetae_126.txt.gz
Theta_e
356 354 355 353 346 343 341 337 342 343 345 343 342 339 339 336 336 335 334 332 332 328
352 354 350 346 351 344 344 341 341 341 341 342 339 340 339 335 335 334 335 333 334 331
339 340 341 340 339 340 342 341 342 342 341 339 339 338 338 334 334 333 332 330 329 330
334 335 336 336 337 338 338 338 336 336 336 337 338 337 337 335 332 330 332 330 327 327
331 330 333 332 332 332 331 332 331 332 331 331 331 333 334 331 330 330 329 328 328 327
328 328 329 330 330 330 328 327 327 326 325 324 325 326 327 328 329 328 328 328 327 326
326 326 326 327 326 326 325 323 323 323 322 322 322 322 322 322 323 323 324 327 327 326
323 324 323 323 323 322 321 320 319 318 318 318 318 317 317 318 317 317 317 319 320 322
317 317 318 320 319 319 318 318 318 316 315 314 315 307 307 309 312 313 313 312 314 315
313 312 313 314 314 314 316 317 315 314 313 312 313 305 302 303 308 309 310 311 312 312
310 309 310 310 310 312 312 312 311 312 312 311 310 300 297 298 304 306 307 307 307 308
308 307 307 307 309 309 307 306 306 306 306 306 305 299 297 297 299 299 300 302 303 303
307 307 306 305 304 303 303 301 301 299 298 297 298 297 295 295 297 296 297 299 301 301
305 303 302 301 299 296 294 293 292 293 295 297 297 297 295 295 296 296 296 297 298 299

GFSNIL_sfc_thetae_129.txt.gz
Theta_e
342 343 342 338 335 333 332 332 332 334 333 332 332 329 329 327 326 325 323 323 324 321
341 336 331 334 331 335 333 334 331 332 332 331 332 330 327 326 323 324 323 323 322 322
326 329 327 328 326 328 328 329 331 333 332 331 330 328 328 327 325 324 325 324 322 322
321 323 324 322 321 321 322 323 326 327 326 328 330 331 328 326 325 325 324 324 322 322
318 318 318 318 319 321 321 322 321 323 322 323 324 323 324 326 328 326 324 324 324 323
314 314 314 315 315 316 316 316 317 318 318 319 319 318 318 318 320 322 323 323 323 323
311 312 312 313 314 315 315 314 314 314 315 315 315 315 315 314 313 312 314 315 317 318
310 309 309 310 311 312 312 312 313 312 312 312 312 314 309 307 307 307 307 309 310 310
308 308 307 307 308 309 309 309 310 309 309 308 311 306 304 303 302 304 305 305 307 309
306 305 304 304 304 303 303 304 304 305 305 305 305 300 299 300 298 300 301 302 303 305
305 303 302 302 301 301 301 300 300 300 301 301 303 298 296 298 296 296 297 299 300 301
303 301 300 298 297 297 295 295 295 296 296 295 295 296 296 296 297 297 296 297 298 300
299 297 296 294 293 293 291 292 293 292 293 294 295 296 295 295 294 294 294 296 297 299
295 292 291 290 290 290 291 291 291 291 292 294 296 295 295 295 295 294 295 296 296 297